Location: Larkspur
(54.4391°N, 113.7691°W)
Time: 21:39:50
(UTC+00:00)

METEOR M2 - Pass Details

Date: 05 December 2023
Orbit: 819 x 826 km, 98.4° (Epoch: 04 March)

Event Time Altitude Azimuth Distance (km) Brightness Sun altitude
Rises 13:22:09 0° 17° (NNE) 3,376 ? -18.5°
Reaches altitude 10° 13:24:34 10° 21° (NNE) 2,437 ? -18.2°
Maximum altitude 13:29:54 59° 101° (ESE) 946 ? -17.4°
Drops below altitude 10° 13:35:11 10° 181° (S) 2,415 ? -16.7°
Sets 13:37:34 0° 185° (S) 3,342 ? -16.4°
